Location: Kerb�bon
(47.7970°N, 3.3487°W)
Time: 09:44:21
(UTC+00:00)

Cosmos 1271 Rocket - Pass Details

Date: 12 May 2021
Orbit: 497 x 545 km, 81.2° (Epoch: 20 June)

Event Time Altitude Azimuth Distance (km) Brightness Sun altitude
Exits shadow 21:40:00 24° 180° (S) 1,151 4.0 -15.8°
Maximum altitude 21:42:19 75° 99° (E) 572 2.7 -16.1°
Drops below altitude 10° 21:46:20 10° 15° (NNE) 1,826 6.0 -16.5°
Sets 21:48:30 0° 13° (NNE) 2,722 7.0 -16.7°
